CW2857 Weather Reports


Display with metric or nautical units.
time (UTC)temp
F
wind
direction
speed
MPH
gust
MPH
rain 1hr
in
rain 24hr
in
rain mn
in
humidity
%
barometer
mb
20240228191531 55 59 0.0 5.0 0.00 0.00 0.00 24 1017.5
20240228191029 54 37 1.0 4.0 0.00 0.00 0.00 25 1017.7
20240228190527 53 71 1.0 4.0 0.00 0.00 0.00 25 1017.8
20240228190027 53 63 1.0 5.0 0.00 0.00 0.00 25 1017.9
20240228185527 52 30 2.0 6.0 0.00 0.00 0.00 25 1017.9
20240228185026 53 71 2.0 6.0 0.00 0.00 0.00 25 1018.0
20240228184526 53 67 2.0 5.0 0.00 0.00 0.00 25 1018.0
20240228184024 52 78 2.0 4.0 0.00 0.00 0.00 26 1018.0
20240228183523 52 5 1.0 5.0 0.00 0.00 0.00 26 1018.1
20240228183031 51 53 1.0 5.0 0.00 0.00 0.00 27 1018.1
20240228182521 51 74 2.0 5.0 0.00 0.00 0.00 27 1018.1
20240228182024 50 61 2.0 5.0 0.00 0.00 0.00 27 1018.2
20240228181530 49 44 1.0 4.0 0.00 0.00 0.00 28 1018.2
20240228181021 49 70 1.0 5.0 0.00 0.00 0.00 28 1018.3
20240228180517 48 58 2.0 5.0 0.00 0.00 0.00 27 1018.4
20240228180016 47 47 1.0 6.0 0.00 0.00 0.00 27 1018.5
20240228175515 48 126 2.0 6.0 0.00 0.00 0.00 28 1018.5
20240228175014 47 32 2.0 5.0 0.00 0.00 0.00 28 1018.5
20240228174514 47 49 3.0 5.0 0.00 0.00 0.00 27 1018.5
20240228174013 47 83 1.0 5.0 0.00 0.00 0.00 27 1018.6
20240228173511 46 33 1.0 5.0 0.00 0.00 0.00 29 1018.6
20240228173011 44 76 1.0 4.0 0.00 0.00 0.00 29 1018.7
20240228172512 44 94 1.0 5.0 0.00 0.00 0.00 30 1018.7
20240228172011 43 63 1.0 5.0 0.00 0.00 0.00 31 1018.8
20240228171507 43 91 1.0 3.0 0.00 0.00 0.00 32 1018.8
20240228171005 42 76 1.0 3.0 0.00 0.00 0.00 32 1018.9
20240228170505 42 86 1.0 4.0 0.00 0.00 0.00 33 1018.9
20240228170004 42 66 0.0 4.0 0.00 0.00 0.00 33 1018.9
20240228165504 42 83 1.0 4.0 0.00 0.00 0.00 33 1018.9
20240228165004 42 84 1.0 4.0 0.00 0.00 0.00 34 1018.9
20240228164506 41 62 1.0 4.0 0.00 0.00 0.00 35 1018.9
20240228164101 41 68 1.0 4.0 0.00 0.00 0.00 37 1018.9
20240228163600 40 57 0.0 3.0 0.00 0.00 0.00 37 1018.9
20240228163059 40 257 1.0 3.0 0.00 0.00 0.00 38 1018.9
20240228162557 39 257 0.0 2.0 0.00 0.00 0.00 43 1019.0
20240228162056 38 257 0.0 2.0 0.00 0.00 0.00 45 1019.0
20240228161555 38 257 0.0 2.0 0.00 0.00 0.00 46 1019.0
20240228161054 37 257 0.0 2.0 0.00 0.00 0.00 47 1019.0
20240228160556 37 257 0.0 1.0 0.00 0.00 0.00 47 1019.1
20240228160055 36 257 0.0 1.0 0.00 0.00 0.00 50 1019.0
20240228155550 35 257 0.0 1.0 0.00 0.00 0.00 51 1019.0
20240228155049 34 257 0.0 1.0 0.00 0.00 0.00 52 1019.0
20240228154549 33 257 0.0 0.0 0.00 0.00 0.00 54 1019.0
20240228154046 32 257 0.0 0.0 0.00 0.00 0.00 53 1019.0
20240228153546 31 257 0.0 2.0 0.00 0.00 0.00 54 1019.1
20240228153055 30 257 0.0 2.0 0.00 0.00 0.00 55 1019.1
20240228152549 29 257 0.0 2.0 0.00 0.00 0.00 57 1019.0
20240228152045 28 257 0.0 2.0 0.00 0.00 0.00 59 1019.0
20240228151544 27 257 0.0 1.0 0.00 0.00 0.00 61 1019.0
20240228151044 27 257 0.0 1.0 0.00 0.00 0.00 61 1019.0
20240228150543 27 257 0.0 1.0 0.00 0.00 0.00 62 1019.0
20240228150043 26 257 0.0 1.0 0.00 0.00 0.00 62 1019.0
20240228145543 26 257 0.0 1.0 0.00 0.00 0.00 63 1018.9
20240228145041 25 257 0.0 2.0 0.00 0.00 0.00 62 1018.8
20240228144541 25 257 1.0 2.0 0.00 0.00 0.00 62 1018.8
20240228144043 25 257 1.0 2.0 0.00 0.00 0.00 62 1018.8
20240228143540 25 257 1.0 2.0 0.00 0.00 0.00 62 1018.7
20240228143040 25 257 1.0 2.0 0.00 0.00 0.00 62 1018.6
20240228142540 25 257 0.0 2.0 0.00 0.00 0.00 62 1018.6
20240228142040 25 257 0.0 2.0 0.00 0.00 0.00 62 1018.5
20240228141539 25 257 1.0 2.0 0.00 0.00 0.00 61 1018.5
20240228141038 26 257 0.0 3.0 0.00 0.00 0.00 61 1018.5
20240228140539 25 257 1.0 3.0 0.00 0.00 0.00 62 1018.5
20240228140037 25 257 1.0 2.0 0.00 0.00 0.00 62 1018.5
20240228135537 25 257 0.0 2.0 0.00 0.00 0.00 61 1018.5
20240228135036 25 257 0.0 3.0 0.00 0.00 0.00 61 1018.5
20240228134542 25 257 1.0 3.0 0.00 0.00 0.00 62 1018.5
20240228134035 25 257 0.0 1.0 0.00 0.00 0.00 61 1018.4
20240228133534 25 257 0.0 2.0 0.00 0.00 0.00 61 1018.4
20240228133034 26 257 0.0 2.0 0.00 0.00 0.00 61 1018.4
20240228132533 26 257 0.0 0.0 0.00 0.00 0.00 61 1018.4
20240228132033 26 257 0.0 2.0 0.00 0.00 0.00 61 1018.4
20240228131539 26 257 0.0 2.0 0.00 0.00 0.00 60 1018.4
20240228131033 26 257 0.0 1.0 0.00 0.00 0.00 60 1018.5
20240228130534 26 257 0.0 0.0 0.00 0.00 0.00 59 1018.5
20240228130036 26 257 0.0 0.0 0.00 0.00 0.00 58 1018.4
20240228125531 27 257 0.0 1.0 0.00 0.00 0.00 58 1018.3
20240228125033 27 257 0.0 0.0 0.00 0.00 0.00 57 1018.2
20240228124533 27 257 0.0 0.0 0.00 0.00 0.00 57 1018.1
20240228124033 27 257 0.0 2.0 0.00 0.00 0.00 57 1018.1
20240228123531 27 257 0.0 2.0 0.00 0.00 0.00 57 1018.1
20240228123033 27 257 0.0 2.0 0.00 0.00 0.00 57 1018.1
20240228122530 27 257 0.0 2.0 0.00 0.00 0.00 58 1018.1
20240228122030 26 257 0.0 1.0 0.00 0.00 0.00 59 1018.1
20240228121530 26 257 0.0 2.0 0.00 0.00 0.00 59 1017.9
20240228121030 26 257 0.0 1.0 0.00 0.00 0.00 59 1018.0
20240228120528 26 257 0.0 0.0 0.00 0.00 0.00 58 1018.0
20240228120027 26 257 0.0 1.0 0.00 0.00 0.00 58 1017.9
20240228115526 26 257 0.0 2.0 0.00 0.00 0.00 57 1017.9
20240228115025 27 257 0.0 3.0 0.00 0.00 0.00 56 1017.8
20240228114525 27 200 0.0 2.0 0.00 0.00 0.00 55 1017.8
20240228114026 28 200 1.0 3.0 0.00 0.00 0.00 55 1017.7
20240228113524 28 200 1.0 3.0 0.00 0.00 0.00 54 1017.8
20240228113024 28 200 1.0 2.0 0.00 0.00 0.00 53 1017.7
20240228112527 28 200 0.0 2.0 0.00 0.00 0.00 54 1017.8
20240228112023 28 200 0.0 2.0 0.00 0.00 0.00 54 1017.8
20240228111540 28 200 0.0 3.0 0.00 0.00 0.00 53 1017.8
20240228111027 28 200 2.0 3.0 0.00 0.00 0.00 54 1017.7
20240228110523 28 200 1.0 3.0 0.00 0.00 0.00 55 1017.8
20240228110035 28 200 1.0 2.0 0.00 0.00 0.00 55 1017.9
20240228105524 28 200 0.0 2.0 0.00 0.00 0.00 55 1017.9
20240228105021 28 200 0.0 2.0 0.00 0.00 0.00 55 1017.9
20240228104526 28 200 1.0 2.0 0.00 0.00 0.00 54 1018.0
20240228104018 28 200 0.0 2.0 0.00 0.00 0.00 54 1018.1
20240228103516 28 200 0.0 2.0 0.00 0.00 0.00 54 1018.2
20240228103015 28 200 0.0 2.0 0.00 0.00 0.00 53 1018.1
20240228102515 29 200 0.0 0.0 0.00 0.00 0.00 52 1018.1
20240228102014 29 200 0.0 1.0 0.00 0.00 0.00 52 1018.2
20240228101517 29 200 0.0 2.0 0.00 0.00 0.00 52 1018.1
20240228101013 29 200 0.0 2.0 0.00 0.00 0.00 52 1018.2
20240228100512 29 200 0.0 0.0 0.00 0.00 0.00 51 1018.2
20240228100012 29 200 0.0 0.0 0.00 0.00 0.00 50 1018.3
20240228095510 29 200 0.0 0.0 0.00 0.00 0.00 49 1018.3
20240228095010 30 200 0.0 0.0 0.00 0.00 0.00 48 1018.3
20240228094511 30 200 0.0 2.0 0.00 0.00 0.00 49 1018.4
20240228094009 30 200 0.0 2.0 0.00 0.00 0.00 48 1018.4
20240228093510 30 200 0.0 2.0 0.00 0.00 0.00 47 1018.4
20240228093007 30 200 1.0 3.0 0.00 0.00 0.00 48 1018.5
20240228092507 30 200 1.0 3.0 0.00 0.00 0.00 47 1018.5
20240228092008 31 200 0.0 3.0 0.00 0.00 0.00 47 1018.5
20240228091509 31 200 1.0 3.0 0.00 0.00 0.00 48 1018.5
20240228091006 30 200 1.0 3.0 0.00 0.00 0.00 49 1018.6
20240228090505 30 200 1.0 3.0 0.00 0.00 0.00 49 1018.6
20240228090005 30 200 2.0 3.0 0.00 0.00 0.00 48 1018.7
20240228085504 30 200 1.0 3.0 0.00 0.00 0.00 49 1018.7
20240228085003 30 200 1.0 2.0 0.00 0.00 0.00 50 1018.7
20240228084503 30 200 1.0 2.0 0.00 0.00 0.00 51 1018.8
20240228084001 30 200 0.0 2.0 0.00 0.00 0.00 51 1018.9
20240228083501 30 200 0.0 2.0 0.00 0.00 0.00 50 1018.9
20240228083102 30 200 1.0 2.0 0.00 0.00 0.00 49 1018.8
20240228082559 30 200 1.0 2.0 0.00 0.00 0.00 49 1018.8
20240228082059 30 200 0.0 2.0 0.00 0.00 0.00 49 1018.8
20240228081602 31 200 0.0 2.0 0.00 0.00 0.00 48 1018.8
20240228081056 31 200 1.0 2.0 0.00 0.00 0.00 48 1018.8
20240228080556 31 200 1.0 3.0 0.00 0.00 0.00 47 1018.8
20240228080055 32 200 1.0 4.0 0.00 0.00 0.00 46 1018.8
20240228075554 32 199 2.0 4.0 0.00 0.00 0.00 45 1018.7
20240228075053 32 202 0.0 3.0 0.00 0.00 0.00 46 1018.7
20240228074555 32 202 1.0 3.0 0.00 0.00 0.00 46 1018.8
20240228074053 31 202 1.0 3.0 0.00 0.00 0.00 48 1018.8
20240228073553 31 202 1.0 3.0 0.00 0.00 0.00 48 1018.7
20240228073052 31 202 1.0 3.0 0.00 0.00 0.00 48 1018.7
20240228072553 31 202 1.0 3.0 0.00 0.00 0.00 48 1018.7
20240228072053 31 202 1.0 3.0 0.00 0.00 0.00 48 1018.6
20240228071552 31 202 1.0 3.0 0.00 0.00 0.00 47 1018.7
20240228071052 31 202 1.0 2.0 0.00 0.00 0.00 47 1018.7
20240228070551 31 202 1.0 2.0 0.00 0.00 0.00 46 1018.7
20240228070050 32 202 0.0 2.0 0.00 0.00 0.00 45 1018.7
20240228065550 32 202 0.0 3.0 0.00 0.00 0.00 45 1018.6
20240228065050 32 202 1.0 3.0 0.00 0.00 0.00 45 1018.6
20240228064550 32 202 0.0 3.0 0.00 0.00 0.00 45 1018.6
20240228064049 32 202 1.0 3.0 0.00 0.00 0.00 45 1018.5
20240228063549 32 202 1.0 2.0 0.00 0.00 0.00 45 1018.5
20240228063049 32 202 0.0 1.0 0.00 0.00 0.00 43 1018.5
20240228062548 33 202 0.0 1.0 0.00 0.00 0.00 43 1018.5
20240228062048 33 202 0.0 3.0 0.00 0.00 0.00 43 1018.5
20240228061549 33 202 0.0 3.0 0.00 0.00 0.00 42 1018.5
20240228061048 33 199 0.0 2.0 0.00 0.00 0.00 42 1018.4
20240228060547 34 199 0.0 3.0 0.00 0.00 0.00 41 1018.4
20240228060051 34 199 0.0 3.0 0.00 0.00 0.00 40 1018.3
20240228055547 34 199 0.0 3.0 0.00 0.00 0.00 39 1018.4
20240228055046 35 187 1.0 4.0 0.00 0.00 0.00 39 1018.3
20240228054546 35 181 2.0 5.0 0.00 0.00 0.00 38 1018.2
20240228054045 34 181 2.0 5.0 0.00 0.00 0.00 42 1018.2
20240228053549 33 194 0.0 2.0 0.00 0.00 0.00 43 1018.2
20240228053046 33 194 0.0 3.0 0.00 0.00 0.00 43 1018.2
20240228052545 33 194 1.0 3.0 0.00 0.00 0.00 44 1018.2
20240228052046 34 194 0.0 2.0 0.00 0.00 0.00 43 1018.1
20240228051545 34 194 0.0 1.0 0.00 0.00 0.00 43 1018.1
20240228051043 34 194 0.0 1.0 0.00 0.00 0.00 42 1017.9
20240228050547 35 194 0.0 2.0 0.00 0.00 0.00 41 1017.9
20240228050051 35 194 0.0 3.0 0.00 0.00 0.00 40 1017.9
20240228045542 35 194 1.0 3.0 0.00 0.00 0.00 40 1017.8
20240228045045 35 191 1.0 2.0 0.00 0.00 0.00 40 1017.8
20240228044548 36 129 0.0 1.0 0.00 0.00 0.00 39 1017.7
20240228044041 36 129 0.0 1.0 0.00 0.00 0.00 38 1017.7
20240228043541 37 129 0.0 1.0 0.00 0.00 0.00 37 1017.6
20240228043046 37 129 0.0 1.0 0.00 0.00 0.00 36 1017.5
20240228042541 37 129 0.0 4.0 0.00 0.00 0.00 35 1017.5
20240228042041 37 130 0.0 6.0 0.00 0.00 0.00 36 1017.5
20240228041541 37 151 1.0 3.0 0.00 0.00 0.00 36 1017.5
20240228041042 37 147 1.0 4.0 0.00 0.00 0.00 37 1017.5
20240228040543 38 128 1.0 4.0 0.00 0.00 0.00 36 1017.4
20240228040040 37 128 1.0 3.0 0.00 0.00 0.00 37 1017.3
20240228035540 36 119 0.0 2.0 0.00 0.00 0.00 37 1017.3
20240228035040 36 121 0.0 2.0 0.00 0.00 0.00 37 1017.3
20240228034540 36 241 0.0 2.0 0.00 0.00 0.00 38 1017.3
20240228034038 36 247 0.0 2.0 0.00 0.00 0.00 37 1017.1
20240228033539 37 246 0.0 3.0 0.00 0.00 0.00 37 1017.1
20240228033040 37 246 0.0 3.0 0.00 0.00 0.00 36 1017.2
20240228032539 37 303 0.0 0.0 0.00 0.00 0.00 34 1017.0
20240228032039 38 303 0.0 1.0 0.00 0.00 0.00 33 1017.0
20240228031539 38 303 0.0 1.0 0.00 0.00 0.00 33 1016.9
20240228031043 38 303 0.0 0.0 0.00 0.00 0.00 30 1017.0
20240228030539 38 303 0.0 1.0 0.00 0.00 0.00 31 1016.8
20240228030048 38 303 0.0 2.0 0.00 0.00 0.00 32 1016.8
20240228025537 39 303 0.0 2.0 0.00 0.00 0.00 31 1016.7
20240228025037 39 303 0.0 2.0 0.00 0.00 0.00 32 1016.7
20240228024538 40 303 1.0 2.0 0.00 0.00 0.00 31 1016.6
20240228024038 40 303 0.0 2.0 0.00 0.00 0.00 31 1016.5
20240228023537 40 303 0.0 1.0 0.00 0.00 0.00 32 1016.5
20240228023042 41 303 0.0 4.0 0.00 0.00 0.00 31 1016.5
20240228022536 41 295 1.0 7.0 0.00 0.00 0.00 31 1016.4
20240228022038 41 298 3.0 8.0 0.00 0.00 0.00 31 1016.4
20240228021537 41 296 4.0 8.0 0.00 0.00 0.00 31 1016.4
20240228021035 42 311 3.0 9.0 0.00 0.00 0.00 30 1016.3
20240228020535 42 294 4.0 9.0 0.00 0.00 0.00 30 1016.2
20240228020036 42 302 5.0 8.0 0.00 0.00 0.00 29 1016.2
20240228015534 43 306 2.0 8.0 0.00 0.00 0.00 29 1016.2
20240228015035 44 320 2.0 8.0 0.00 0.00 0.00 29 1016.1
20240228014535 44 308 3.0 8.0 0.00 0.00 0.00 27 1016.1
20240228014035 45 332 2.0 8.0 0.00 0.00 0.00 28 1016.0
20240228013535 46 294 2.0 5.0 0.00 0.00 0.00 28 1016.0
20240228013035 48 340 2.0 6.0 0.00 0.00 0.00 26 1016.0
20240228012535 49 330 2.0 4.0 0.00 0.00 0.00 25 1015.9
20240228012035 49 334 1.0 5.0 0.00 0.00 0.00 25 1015.8
20240228011536 49 346 2.0 5.0 0.00 0.00 0.00 24 1015.8
20240228011034 50 338 2.0 5.0 0.00 0.00 0.00 24 1015.8
20240228010533 50 276 1.0 3.0 0.00 0.00 0.00 24 1015.8
20240228010033 51 275 0.0 2.0 0.00 0.00 0.00 24 1015.8
20240228005536 51 275 0.0 2.0 0.00 0.00 0.00 24 1015.8
20240228005032 51 273 0.0 4.0 0.00 0.00 0.00 24 1015.7
20240228004532 51 273 2.0 5.0 0.00 0.00 0.00 23 1015.8
20240228004032 52 286 2.0 5.0 0.00 0.00 0.00 23 1015.7
20240228003535 53 337 0.0 5.0 0.00 0.00 0.00 22 1015.8
20240228003031 53 279 0.0 3.0 0.00 0.00 0.00 22 1015.8
20240228002531 53 318 0.0 3.0 0.00 0.00 0.00 21 1015.8
20240228002031 55 340 1.0 2.0 0.00 0.00 0.00 21 1015.8
20240228001532 56 46 0.0 2.0 0.00 0.00 0.00 20 1015.7
20240228001031 56 46 0.0 3.0 0.00 0.00 0.00 20 1015.8
20240228000532 56 59 0.0 3.0 0.00 0.00 0.00 20 1015.7
20240228000031 56 61 0.0 3.0 0.00 0.00 0.00 20 1015.8
20240227235531 56 124 1.0 3.0 0.00 0.00 0.00 20 1015.7
20240227235030 56 9 0.0 5.0 0.00 0.00 0.00 21 1015.8
20240227234530 56 360 2.0 5.0 0.00 0.00 0.00 21 1015.7
20240227234030 56 5 0.0 3.0 0.00 0.00 0.00 21 1015.8
20240227233530 55 90 0.0 4.0 0.00 0.00 0.00 21 1015.9
20240227233030 56 118 2.0 4.0 0.00 0.00 0.00 20 1016.0
20240227232529 57 78 1.0 5.0 0.00 0.00 0.00 20 1016.0
20240227232028 56 48 2.0 5.0 0.00 0.00 0.00 21 1016.0
20240227231528 55 355 1.0 4.0 0.00 0.00 0.00 22 1016.0
20240227231027 53 47 1.0 5.0 0.00 0.00 0.00 23 1016.0
20240227230528 52 350 3.0 5.0 0.00 0.00 0.00 23 1016.0
20240227230027 52 284 2.0 7.0 0.00 0.00 0.00 23 1016.0
20240227225525 53 314 3.0 7.0 0.00 0.00 0.00 23 1016.1
20240227225029 55 346 2.0 5.0 0.00 0.00 0.00 22 1016.2
20240227224526 55 53 2.0 5.0 0.00 0.00 0.00 22 1016.2
20240227224026 55 290 2.0 4.0 0.00 0.00 0.00 21 1016.2
20240227223525 55 355 2.0 4.0 0.00 0.00 0.00 22 1016.4
20240227223025 53 147 0.0 4.0 0.00 0.00 0.00 22 1016.3
20240227222525 55 44 1.0 5.0 0.00 0.00 0.00 22 1016.3
20240227222024 55 355 2.0 7.0 0.00 0.00 0.00 21 1016.3
20240227221528 55 47 3.0 7.0 0.00 0.00 0.00 21 1016.2
20240227221022 54 49 2.0 6.0 0.00 0.00 0.00 22 1016.3
20240227220523 53 55 3.0 6.0 0.00 0.00 0.00 22 1016.3
20240227220027 53 78 3.0 6.0 0.00 0.00 0.00 23 1016.3
20240227215522 52 87 2.0 4.0 0.00 0.00 0.00 23 1016.3
20240227215021 53 215 2.0 5.0 0.00 0.00 0.00 22 1016.3
20240227214525 54 105 2.0 5.0 0.00 0.00 0.00 22 1016.3
20240227214021 55 350 2.0 6.0 0.00 0.00 0.00 22 1016.3
20240227213521 55 5 2.0 7.0 0.00 0.00 0.00 22 1016.3
20240227213020 54 65 2.0 5.0 0.00 0.00 0.00 23 1016.3
20240227212519 53 30 1.0 5.0 0.00 0.00 0.00 23 1016.2
20240227212019 52 70 1.0 8.0 0.00 0.00 0.00 23 1016.2
20240227211519 52 75 2.0 8.0 0.00 0.00 0.00 24 1016.2
20240227211019 53 121 1.0 4.0 0.00 0.00 0.00 23 1016.1
20240227210518 52 323 0.0 10.0 0.00 0.00 0.00 24 1016.2
20240227210018 52 11 3.0 10.0 0.00 0.00 0.00 24 1016.4
20240227205518 52 344 4.0 8.0 0.00 0.00 0.00 24 1016.6
20240227205017 53 27 2.0 5.0 0.00 0.00 0.00 23 1016.7
20240227204517 53 36 1.0 6.0 0.00 0.00 0.00 23 1016.8
20240227204016 52 348 3.0 8.0 0.00 0.00 0.00 24 1016.8
20240227203518 52 31 2.0 8.0 0.00 0.00 0.00 25 1016.8
20240227203013 51 53 2.0 5.0 0.00 0.00 0.00 26 1016.9
20240227202513 49 122 0.0 6.0 0.00 0.00 0.00 27 1017.0
20240227202013 49 85 2.0 6.0 0.00 0.00 0.00 26 1017.1
20240227201517 50 348 1.0 6.0 0.00 0.00 0.00 27 1017.1
20240227201011 49 51 2.0 5.0 0.00 0.00 0.00 28 1017.2
20240227200511 48 349 2.0 5.0 0.00 0.00 0.00 28 1017.3
20240227200016 49 335 1.0 5.0 0.00 0.00 0.00 28 1017.4
20240227195510 49 348 1.0 5.0 0.00 0.00 0.00 27 1017.3
20240227195009 48 42 3.0 7.0 0.00 0.00 0.00 29 1017.5
20240227194511 47 15 3.0 7.0 0.00 0.00 0.00 29 1017.7
20240227194009 46 331 3.0 6.0 0.00 0.00 0.00 30 1017.7
20240227193508 46 274 2.0 6.0 0.00 0.00 0.00 29 1017.7
20240227193009 48 52 2.0 6.0 0.00 0.00 0.00 28 1017.7
20240227192510 48 355 2.0 6.0 0.00 0.00 0.00 28 1017.6
20240227192008 48 82 1.0 4.0 0.00 0.00 0.00 28 1017.7